When you browse on this site, cookies collect data to enhance your experience and personalize the content and advertising you see.
Visit our Privacy Policy to learn more. By continuing to use the site, you agree to this use of cookies and data.
  • In Spain
  • List of Countries
  • For 7 days
  • Water Temperature
  • Satellite Maps
  • Weather Map
  • Weather Widgets
  • user-avatar
    Login

    Hourly Weather Lucknow

    Today, 20 April, Saturday

    Time Temperature Precipitation Wind Pressure Humidity
    00:00 +29°C° 0 mm 1 mps 743 mmHg 32%
    01:00 +29°C° 0 mm 1 mps 742 mmHg 32%
    02:00 +29°C° 0 mm 1 mps 742 mmHg 33%
    03:00 +28°C° 0 mm 1 mps 742 mmHg 34%
    04:00 +28°C° 0 mm 1 mps 742 mmHg 35%
    05:00 +26°C° 0 mm 1 mps 742 mmHg 39%
    06:00 +28°C° 0 mm 1 mps 743 mmHg 36%
    07:00 +30°C° 0 mm 1 mps 743 mmHg 32%
    08:00 +30°C° 0 mm 0 mps 744 mmHg 29%
    09:00 +33°C° 0 mm 1 mps 744 mmHg 27%
    10:00 +35°C° 0 mm 2 mps 744 mmHg 24%
    11:00 +36°C° 0 mm 3 mps 744 mmHg 22%
    12:00 +37°C° 0 mm 3 mps 743 mmHg 20%
    13:00 +38°C° 0 mm 3 mps 743 mmHg 19%
    14:00 +40°C° 0 mm 4 mps 742 mmHg 18%
    15:00 +38°C° 0 mm 3 mps 741 mmHg 18%
    16:00 +38°C° 0 mm 3 mps 741 mmHg 18%
    17:00 +37°C° 0 mm 2 mps 741 mmHg 20%
    18:00 +36°C° 0 mm 2 mps 741 mmHg 21%
    19:00 +34°C° 0 mm 1 mps 741 mmHg 22%
    20:00 +33°C° 0 mm 1 mps 741 mmHg 23%
    21:00 +33°C° 0 mm 1 mps 741 mmHg 24%
    22:00 +32°C° 0 mm 1 mps 741 mmHg 25%
    23:00 +32°C° 0 mm 1 mps 741 mmHg 26%

    Tomorrow, 21 April, Sunday

    Time Temperature Precipitation Wind Pressure Humidity
    00:00 +31°C° 0 mm 1 mps 741 mmHg 26%
    01:00 +31°C° 0 mm 1 mps 741 mmHg 27%
    02:00 +30°C° 0 mm 1 mps 740 mmHg 27%
    03:00 +30°C° 0 mm 1 mps 740 mmHg 28%
    04:00 +29°C° 0 mm 1 mps 740 mmHg 29%
    05:00 +29°C° 0 mm 1 mps 740 mmHg 29%
    06:00 +29°C° 0 mm 0 mps 741 mmHg 27%
    07:00 +31°C° 0 mm 0 mps 742 mmHg 24%
    08:00 +32°C° 0 mm 0 mps 742 mmHg 22%
    09:00 +36°C° 0 mm 1 mps 743 mmHg 20%
    10:00 +38°C° 0 mm 2 mps 743 mmHg 18%
    11:00 +39°C° 0 mm 2 mps 743 mmHg 15%
    12:00 +40°C° 0 mm 3 mps 742 mmHg 14%
    13:00 +40°C° 0 mm 3 mps 741 mmHg 13%
    14:00 +42°C° 0 mm 3 mps 740 mmHg 12%
    15:00 +42°C° 0 mm 3 mps 740 mmHg 12%
    16:00 +42°C° 0 mm 3 mps 740 mmHg 12%
    17:00 +40°C° 0 mm 3 mps 739 mmHg 13%
    18:00 +39°C° 0 mm 2 mps 739 mmHg 14%
    19:00 +37°C° 0 mm 2 mps 739 mmHg 15%
    20:00 +35°C° 0 mm 1 mps 740 mmHg 17%
    21:00 +34°C° 0 mm 1 mps 740 mmHg 18%
    22:00 +34°C° 0 mm 1 mps 740 mmHg 19%
    23:00 +33°C° 0 mm 1 mps 740 mmHg 20%

    Day after tomorrow, 22 April, Monday

    Time Temperature Precipitation Wind Pressure Humidity
    00:00 +32°C° 0 mm 1 mps 740 mmHg 20%
    01:00 +32°C° 0 mm 1 mps 740 mmHg 21%
    02:00 +29°C° 0 mm 0 mps 739 mmHg 22%
    03:00 +29°C° 0 mm 0 mps 740 mmHg 23%
    04:00 +28°C° 0 mm 0 mps 740 mmHg 24%
    05:00 +28°C° 0 mm 0 mps 740 mmHg 24%
    06:00 +32°C° 0 mm 1 mps 741 mmHg 22%
    07:00 +34°C° 0 mm 1 mps 742 mmHg 20%
    08:00 +37°C° 0 mm 2 mps 742 mmHg 18%
    09:00 +39°C° 0 mm 2 mps 742 mmHg 16%
    10:00 +40°C° 0 mm 1 mps 742 mmHg 14%
    11:00 +42°C° 0 mm 1 mps 743 mmHg 13%
    12:00 +42°C° 0 mm 2 mps 742 mmHg 13%
    13:00 +42°C° 0 mm 2 mps 741 mmHg 13%
    14:00 +43°C° 0 mm 3 mps 740 mmHg 13%
    15:00 +43°C° 0 mm 3 mps 740 mmHg 13%
    16:00 +43°C° 0 mm 3 mps 739 mmHg 12%
    17:00 +42°C° 0 mm 2 mps 739 mmHg 12%
    18:00 +40°C° 0 mm 2 mps 739 mmHg 13%
    19:00 +39°C° 0 mm 2 mps 740 mmHg 14%
    20:00 +36°C° 0 mm 1 mps 740 mmHg 16%
    21:00 +36°C° 0 mm 1 mps 740 mmHg 17%
    22:00 +35°C° 0 mm 1 mps 740 mmHg 17%
    23:00 +34°C° 0 mm 1 mps 740 mmHg 18%

    23 April, Tuesday

    Time Temperature Precipitation Wind Pressure Humidity
    00:00 +34°C° 0 mm 1 mps 740 mmHg 19%
    01:00 +34°C° 0 mm 2 mps 740 mmHg 19%
    02:00 +34°C° 0 mm 3 mps 739 mmHg 20%
    03:00 +33°C° 0 mm 3 mps 740 mmHg 22%
    04:00 +33°C° 0 mm 3 mps 740 mmHg 24%
    05:00 +31°C° 0 mm 3 mps 740 mmHg 26%
    06:00 +34°C° 0 mm 4 mps 741 mmHg 24%
    07:00 +35°C° 0 mm 4 mps 742 mmHg 23%
    08:00 +36°C° 0 mm 5 mps 742 mmHg 22%
    09:00 +39°C° 0 mm 5 mps 742 mmHg 19%
    10:00 +41°C° 0 mm 4 mps 742 mmHg 17%
    11:00 +43°C° 0 mm 3 mps 742 mmHg 14%
    12:00 +44°C° 0 mm 3 mps 742 mmHg 13%
    13:00 +45°C° 0 mm 3 mps 741 mmHg 11%
    14:00 +46°C° 0 mm 3 mps 740 mmHg 9%
    15:00 +45°C° 0 mm 3 mps 740 mmHg 9%
    16:00 +45°C° 0 mm 3 mps 739 mmHg 9%
    17:00 +45°C° 0 mm 3 mps 739 mmHg 9%
    18:00 +42°C° 0 mm 2 mps 740 mmHg 11%
    19:00 +40°C° 0 mm 2 mps 740 mmHg 12%
    20:00 +38°C° 0 mm 2 mps 741 mmHg 14%
    21:00 +37°C° 0 mm 2 mps 741 mmHg 17%
    22:00 +37°C° 0 mm 3 mps 741 mmHg 19%
    23:00 +36°C° 0 mm 3 mps 741 mmHg 22%

    24 April, Wednesday

    Time Temperature Precipitation Wind Pressure Humidity
    00:00 +35°C° 0 mm 3 mps 741 mmHg 23%
    01:00 +35°C° 0 mm 3 mps 741 mmHg 24%
    02:00 +34°C° 0 mm 3 mps 740 mmHg 25%
    03:00 +34°C° 0 mm 3 mps 740 mmHg 27%
    04:00 +33°C° 0 mm 4 mps 741 mmHg 28%
    05:00 +33°C° 0 mm 4 mps 741 mmHg 29%
    06:00 +34°C° 0 mm 5 mps 742 mmHg 29%
    07:00 +36°C° 0 mm 5 mps 742 mmHg 28%
    08:00 +38°C° 0 mm 6 mps 743 mmHg 27%
    09:00 +40°C° 0 mm 5 mps 743 mmHg 24%
    10:00 +42°C° 0 mm 4 mps 743 mmHg 21%
    11:00 +43°C° 0 mm 3 mps 743 mmHg 18%
    12:00 +44°C° 0 mm 3 mps 742 mmHg 16%
    13:00 +45°C° 0 mm 2 mps 741 mmHg 14%
    14:00 +46°C° 0 mm 2 mps 741 mmHg 13%
    15:00 +45°C° 0 mm 2 mps 740 mmHg 13%
    16:00 +45°C° 0 mm 2 mps 740 mmHg 13%
    17:00 +45°C° 0 mm 2 mps 739 mmHg 13%
    18:00 +43°C° 0 mm 2 mps 740 mmHg 14%
    19:00 +41°C° 0 mm 2 mps 740 mmHg 16%
    20:00 +40°C° 0 mm 2 mps 740 mmHg 17%
    21:00 +39°C° 0 mm 2 mps 740 mmHg 18%
    22:00 +38°C° 0 mm 2 mps 740 mmHg 20%
    23:00 +37°C° 0 mm 2 mps 740 mmHg 21%

    25 April, Thursday

    Time Temperature Precipitation Wind Pressure Humidity
    00:00 +36°C° 0 mm 2 mps 740 mmHg 23%
    01:00 +36°C° 0 mm 3 mps 740 mmHg 24%
    02:00 +35°C° 0 mm 3 mps 739 mmHg 26%
    03:00 +35°C° 0 mm 2 mps 740 mmHg 27%
    04:00 +34°C° 0 mm 2 mps 740 mmHg 29%
    05:00 +32°C° 0 mm 2 mps 740 mmHg 30%
    06:00 +35°C° 0 mm 3 mps 741 mmHg 29%
    07:00 +37°C° 0 mm 4 mps 742 mmHg 27%
    08:00 +38°C° 0 mm 4 mps 743 mmHg 26%
    09:00 +41°C° 0 mm 4 mps 743 mmHg 23%
    10:00 +42°C° 0 mm 3 mps 743 mmHg 21%
    11:00 +43°C° 0 mm 2 mps 742 mmHg 19%
    12:00 +45°C° 0 mm 2 mps 742 mmHg 16%
    13:00 +46°C° 0 mm 2 mps 741 mmHg 14%
    14:00 +47°C° 0 mm 3 mps 740 mmHg 12%
    15:00 +47°C° 0 mm 3 mps 740 mmHg 12%
    16:00 +47°C° 0 mm 3 mps 739 mmHg 11%
    17:00 +46°C° 0 mm 3 mps 739 mmHg 11%
    18:00 +45°C° 0 mm 3 mps 739 mmHg 11%
    19:00 +42°C° 0 mm 2 mps 739 mmHg 12%
    20:00 +41°C° 0 mm 1 mps 740 mmHg 13%
    21:00 +40°C° 0 mm 1 mps 740 mmHg 14%
    22:00 +39°C° 0 mm 1 mps 740 mmHg 14%
    23:00 +36°C° 0 mm 0 mps 740 mmHg 14%
    Show more